Weather History for Chicopee, MA

Change the Weather History Date:

Wednesday, September 19, 2012

  Actual Average Record
Temperature  
Mean Temperature 56 °F -  
Max Temperature 68 °F 70 °F 80 °F (1997)
Min Temperature 44 °F 49 °F 38 °F (2011)
Degree Days  
Heating Degree Days 9    
Growing Degree Days 6 (Base 50)    
Moisture  
Dew Point 53 °F    
Average Humidity 76    
Maximum Humidity 100    
Minimum Humidity 38    
Precipitation  
Precipitation 0.00 in - - ()
Sea Level Pressure  
Sea Level Pressure 29.90 in    
Wind  
Wind Speed 10 mph (NW)    
Max Wind Speed 18 mph    
Max Gust Speed 25 mph    
Visibility 10 miles    
Events Rain    
Averages and records for this station are not official NWS values.
T = Trace of Precipitation, MM = Missing Value Source: NWS Daily Summary

Daily Weather History Graph

Daily Weather History Graph

Search for Another Location

Airport:

Trip Planner

Search our weather history database for the weather conditions in past years. The results will help you decide how hot, cold, wet, or windy it might be!

Date:

Astronomy

Sep. 19, 2012 Rise Set
Actual Time 6:34 AM EDT 6:51 PM EDT
Civil Twilight 6:06 AM EDT 7:19 PM EDT
Nautical Twilight 5:33 AM EDT 7:52 PM EDT
Astronomical Twilight 5:00 AM EDT 8:26 PM EDT
Moon 10:47 AM EDT (9/19) 8:53 PM EDT (9/19)
Length of Visible Light 13h 13m
Length of Day
12h 17m
Waxing Crescent, 17% of the Moon is Illuminated
Sep 19
Waxing Crescent
Sep 22
First Quarter
Sep 29
Full
Oct 8
Last Quarter
Oct 15
New

Hourly Weather History & Observations

Time (EDT) Temp. Windchill Dew Point Humidity Pressure Visibility Wind Dir Wind Speed Gust Speed Precip Events Conditions
12:03 AM 68.0 °F - 68.0 °F 100% 29.69 in 10.0 mi SSW 12.7 mph 20.7 mph N/A   Overcast
12:04 AM 68.0 °F - 68.0 °F 100% 29.70 in 10.0 mi SSW 12.7 mph 20.7 mph N/A   Overcast
12:55 AM 68.0 °F - 67.5 °F 98% 29.70 in 10.0 mi South 10.4 mph - 0.00 in   Overcast
1:04 AM 68.0 °F - 68.0 °F 100% 29.70 in 10.0 mi SSW 10.4 mph - N/A   Overcast
1:35 AM 68.0 °F - 68.0 °F 100% 29.70 in 10.0 mi South 8.1 mph - N/A   Overcast
1:39 AM 68.0 °F - 68.0 °F 100% 29.70 in 10.0 mi South 8.1 mph - N/A   Overcast
1:55 AM 67.6 °F - 67.1 °F 98% 29.70 in 10.0 mi South 8.1 mph - N/A   Overcast
1:58 AM 68.0 °F - 66.2 °F 94% 29.70 in 10.0 mi South 9.2 mph - N/A   Overcast
2:42 AM 66.2 °F - 64.4 °F 94% 29.73 in 10.0 mi NW 15.0 mph 25.3 mph N/A Rain Light Rain
2:49 AM 62.6 °F - 60.8 °F 94% 29.74 in 10.0 mi NW 16.1 mph 25.3 mph N/A Rain Light Rain
2:53 AM 62.6 °F - 59.0 °F 88% 29.74 in 10.0 mi NW 17.3 mph 24.2 mph N/A   Overcast
2:55 AM 62.2 °F - 58.5 °F 87% 29.74 in 10.0 mi WNW 18.4 mph 24.2 mph 0.00 in   Overcast
3:48 AM 60.8 °F - 53.6 °F 77% 29.78 in 10.0 mi NW 9.2 mph - N/A   Overcast
3:55 AM 60.3 °F - 54.1 °F 80% 29.77 in 10.0 mi NW 9.2 mph - N/A   Overcast
4:55 AM 60.1 °F - 53.2 °F 78% 29.80 in 10.0 mi NW 9.2 mph - N/A   Overcast
5:02 AM 60.8 °F - 51.8 °F 72% 29.81 in 10.0 mi NNW 10.4 mph - N/A   Light Drizzle
5:24 AM 59.0 °F - 51.8 °F 77% 29.83 in 10.0 mi Variable 5.8 mph - N/A   Overcast
5:55 AM 58.6 °F - 48.9 °F 70% 29.85 in 10.0 mi NNW 9.2 mph - 0.00 in   Overcast
6:55 AM 57.7 °F - 45.5 °F 64% 29.89 in 10.0 mi NW 10.4 mph - N/A   Overcast
7:55 AM 57.2 °F - 46.4 °F 67% 29.91 in 10.0 mi NW 6.9 mph - N/A   Overcast
8:55 AM 58.1 °F - 46.8 °F 66% 29.95 in 10.0 mi NNW 5.8 mph - N/A   Overcast
9:55 AM 60.3 °F - 47.7 °F 63% 29.97 in 10.0 mi NNW 5.8 mph - N/A   Clear
10:55 AM 63.5 °F - 45.9 °F 53% 29.99 in 10.0 mi WNW 9.2 mph - N/A   Clear
11:55 AM 65.5 °F - 43.9 °F 46% 30.01 in 10.0 mi North 10.4 mph - N/A   Clear
12:55 PM 67.1 °F - 42.1 °F 40% 30.02 in 10.0 mi North 13.8 mph 20.7 mph N/A   Clear
1:55 PM 67.6 °F - 44.6 °F 43% 30.04 in 10.0 mi North 11.5 mph - N/A   Mostly Cloudy
2:55 PM 68.2 °F - 43.2 °F 40% 30.05 in 10.0 mi NNE 11.5 mph - N/A   Clear
3:55 PM 67.5 °F - 41.2 °F 38% 30.07 in 10.0 mi NNW 10.4 mph - N/A   Clear
4:55 PM 67.8 °F - 42.6 °F 40% 30.09 in 10.0 mi NNW 8.1 mph - N/A   Clear
5:55 PM 65.7 °F - 42.4 °F 43% 30.10 in 10.0 mi North 6.9 mph - N/A   Partly Cloudy
6:55 PM 61.0 °F - 45.0 °F 56% 30.12 in 10.0 mi NW 3.5 mph - N/A   Clear
7:55 PM 50.4 °F - 48.0 °F 92% 30.14 in 10.0 mi Calm Calm - N/A   Clear
8:55 PM 48.9 °F - 47.7 °F 95% 30.17 in 10.0 mi NNE 5.8 mph - N/A   Clear
9:55 PM 47.1 °F - 46.6 °F 98% 30.18 in 10.0 mi Calm Calm - N/A   Clear
10:55 PM 44.6 °F - 44.1 °F 98% 30.19 in 10.0 mi Calm Calm - N/A   Clear
11:55 PM 44.8 °F 42.4 °F 44.2 °F 98% 30.21 in 10.0 mi SE 4.6 mph - N/A   Clear